STARLINK-32097, 60351

Orbit data source: Space-Track

STARLINK-32097, 60351 is a payload satellite owned by SpaceX/Seattle (US) in LEO that was launched on Fri, 02 Aug 2024 UTC via an FALCON 9 launch vehicle from the Air Force Eastern Test Range (AFETR). Payload-class satellites include a variety of spacecraft equipped with specific instruments for various scientific and technological missions. These include communications satellites like Starlink; space stations such as the ISS; scientific satellites like the Hubble; Earth observation satellites from companies like Planet Labs, Umbra, and HawkEye 360; GPS; miniature CubeSats for education and research; and military/defense satellites.

Loading next visibility...
Identifier
60351, 2024-136Y
Orbit
LEO
Country
Flag of USUS
Related business
Manufacturer
SpaceX/Seattle
Mission
Operational Commercial Communications
Bus & Motor
STARLINK V2M, Unknown motor
Mass
730 kg wet, ~700 kg dry
Launch date (UTC)
2024-08-02 (2 years ago)
Launch vehicle
FALCON 9
Launch site
Air Force Eastern Test Range (AFETR)
Object type
Payload
Rocket body
Debris
Shape & HBR
Box + 2 Pan, 17.7 m
Radar Cross Section
33.884 m², Large (>1 m²)

Expand to show TLE details & history
Last TLE update: 7 hours ago

TLE from 7 hours ago
0 STARLINK-32097
1 60351U 24136Y   26125.12336052  .00000793  00000-0  34622-4 0  9999
2 60351  53.1621 172.9028 0001532 102.9715 257.1459 15.34389049 98310
Epoch: 2026-05-05T02:57Z
TLE epoch observation values (Epoch: 2026-05-05T02:57:38.348Z)
Latitude
-0.00003°
Longitude
-94.50973°
Altitude
463.871 km
Speed
7.636 km/s
True Right ascension
11h 31m 36s
True Declination
0° 00' 00"
Sunlit
Object was in full shadow at epoch
Visualization orbit readout
Latitude
Unknown
Longitude
Unknown
Altitude
Unknown
Speed
Unknown
Apparent Right ascension
Unknown
Apparent Declination
Unknown
Sunlit
N/A
Visualization observer readout
Local Sidereal Time
17:48:16
Azimuth
Unknown
Elevation
Unknown
Doppler factor
Unknown
Orbital elements
Apogee altitude
464.04 km
Perigee altitude
461.944 km
Semi-major axis
6,841.129 km
Eccentricity
0.00015
Inclination
53.1621°
RAAN
172.9028°
Arg. of periapsis
102.9715°
True anomaly
257.12879°
Mean anomaly
257.1459°
Eccentric anomaly
257.13734°
Mean motion
3.83576 °/min
Orbital period
93.85 mins
BSTAR
0.000034622
Loading maneuver chart data...
Computing Atmospheric mass density...
Loading historical data...
Loading historical data...
Loading historical data...
Loading historical data...
Loading historical data...
Loading historical data...
Loading historical data...

Documentation

Showing up to 5 results
|